Weather in Vorotynsk

Russia / Kaluga Oblast     54°25′47″N   36°02′43″E
temp.,
°C
wind,
m/s
gust,
m/s
humid.,
%
clouds,
%
prec.,
mm/h
press.,
hPa
HPBL,
m
21 january, fri
fri2100:00−3s71396100 0.4 1002616
03:00−3s61293100 0.6 1001484
06:00−4s51194100 0.1 999515
09:00−4sse51094100 0.1 998365
12:00−3ssw5892100 0.1 997692
15:00−4s498782 0.1 997390
18:00−7sse5119399 0.0 997297
21:00−6sse6129599 0.5 996484
22 january, sat
sat2200:00−5sse51095100 0.6 996413
03:00−4s4996100 1.3 997398
06:00−8s369695 0.1 99992
09:00−10s259871 0.2 100282
12:00−6ssw259382 0.1 1004297
15:00−6s259393 0.2 1006404
18:00−13sse1110085 0.0 10099
21:00−15se1110099 0.1 10129
23 january, sun
sun2300:00−15e11100100 0.1 10159
03:00−17ene11100100 0.1 10179
06:00−18e11100100 0.1 10209
09:00−19ne22100100 0.1 102411
12:00−11ene129691 0.0 1027105
15:00−8ne129529 0.1 102859
18:00−15nne2210072 0.0 103211
21:00−18ne1110097 0.0 10349
24 january, mon
mon2400:00−20nne11100100 0.0 10369
03:00−21nne22100100 0.0 103713
06:00−20n34100100 0.0 103841
09:00−22ne11100100 0.1 103810
12:00−12ene239581 0.0 1038126
15:00−9nne249426 0.0 1036170
18:00−17nne2210067 0.0 10379
21:00−20ne1110098 0.0 10379
25 january, tue
tue2500:00−21e11100100 0.0 10369
03:00−22n11100100 0.0 10359
06:00−21wsw00100100 0.0 10339
09:00−21ssw11100100 0.1 103210
12:00−11sw239586 0.0 1029121
15:00−9ssw359416 0.0 1026186
18:00−14s349853 0.0 102551
21:00−17ssw3410080 0.0 102545